Regional Weather Roundup
Issued by NWS Huntsville, AL

Home | Current Version | Previous Version | Text Only | Print | Product List | Glossary On
Versions: 1 2 3 4 5 6 7 8 9 10 11 12 13 14 15 16 17 18 19 20 21 22 23 24 25 26 27 28 29 30 31 32 33 34 35 36 37 38 39 40 41 42 43 44 45 46 47 48 49 50
000
ASUS44 KHUN 110124
RWRHUN

WEATHER ROUNDUP FOR THE TENNESSEE VALLEY
NATIONAL WEATHER SERVICE HUNTSVILLE AL
800 PM CDT THU JUL 10 2014

ALZ001>004-110200-
NORTHWEST ALABAMA

CITY           SKY/WX    TMP DP  RH WIND       PRES   REMARKS
SHOALS AIRPORT CLEAR     77  68  73 CALM      30.09R
SHOALS TVA RES   N/A     75 N/A N/A MISG        N/A
$$

ALZ005>007-016-110200-
NORTH CENTRAL ALABAMA

CITY           SKY/WX    TMP DP  RH WIND       PRES   REMARKS
DECATUR AP     PTCLDY    77  71  82 CALM      30.08R
HUNTSVILLE AP  MOCLDY    80  68  66 NW5       30.07R
HUN NWS/UAH      N/A     81  62  52 N3          N/A
MERIDIANVILLE  CLEAR     73  64  73 CALM      30.09R
VINEMONT AP    FAIR      76  71  85 CALM      30.11R
$$

ALZ008>010-110200-
NORTHEAST ALABAMA

CITY           SKY/WX    TMP DP  RH WIND       PRES   REMARKS
ALBERTVILLE    PTCLDY    79  73  83 CALM      30.08R
CROSSVILLE       N/A     72 N/A N/A CALM        N/A
FORT PAYNE     PTCLDY    75  68  78 CALM      30.08R
SCOTTSBORO AP  PTCLDY    77  72  83 CALM      30.08R
SCOTTSBORO HCN   N/A     79 N/A N/A MISG        N/A
VALLEY HEAD      N/A     77 N/A N/A MISG        N/A
$$

TNZ076-096-097-110200-
SOUTHEASTERN MIDDLE TENNESSEE

CITY           SKY/WX    TMP DP  RH WIND       PRES   REMARKS
FAYETTEVILLE   CLEAR     75  63  64 MISG      30.10R
TULLAHOMA      CLEAR     73  64  73 CALM      30.12R
WINCHESTER     CLEAR     73  66  78 CALM      30.11R
$$

...SURROUNDING SITES...

CITY           SKY/WX    TMP DP  RH WIND       PRES   REMARKS
ATLANTA        MOCLDY    80  71  74 SW5       30.08R
ANNISTON       PTCLDY    81  72  74 SW3       30.06R
BIRMINGHAM     PTCLDY    82  68  62 N7        30.07R
CHATTANOOGA    PTCLDY    82  65  56 N7        30.07R
CORINTH        FAIR      75  68  78 CALM      30.07S
DALTON         PTCLDY    77  70  78 CALM      30.07R
GADSDEN        PTCLDY    81  70  69 CALM      30.05R
GOLDEN TRNGL   CLEAR     79  70  73 CALM      30.06R
HALEYVILLE     FAIR      75  70  85 CALM      30.12R
JACKSON TN     MOCLDY    77  67  71 CALM      30.07R
LEWISBURG      FAIR      80  66  62 CALM      30.07R
MEMPHIS        CLOUDY    83  61  47 E6        30.06S
MURFREESBORO   FAIR      83  61  47 E3        30.07R
NASHVILLE      MOCLDY    83  60  45 N6        30.08R
OXFORD MS      FAIR      77  70  78 CALM      30.09R
ROME           MOCLDY    82  70  66 N7        30.04R
SAVANNAH       CLEAR     73  72  94 CALM      30.08S
TUPELO         PTCLDY    82  68  62 E6        30.06R
TUSCALOOSA     CLEAR     83  70  64 CALM      30.04R
$$

...GULF COAST WEATHER...

CITY           SKY/WX    TMP DP  RH WIND       PRES   REMARKS
GULFPORT       MOCLDY    84  73  69 CALM      30.06R HX  90
PASCAGOULA     PTCLDY    77  74  90 CALM      30.07R
MOBILE         PTCLDY    77  75  93 CALM      30.09R
GULF SHORES    MOCLDY    74  72  92 CALM      30.07R
PENSACOLA      MOCLDY    75  74  96 N3        30.06R
DESTIN         CLOUDY    78  71  79 N3        30.06R
PANAMA CITY    MOCLDY    79  74  85 S2        30.07R
APPALACHICOLA  MOCLDY    82  73  74 SW5       30.08S
$$



USA.gov is the U.S. government's official web portal to all federal, state and local government web resources and services.